SCP
0 0 0 0 0 0 0 0 0 0 0 0 0 0 0 0 0 0 0 0 0 0 0 0 0 0 0 0 0 0 0 0 0 0 0 0 0 0 0 0 0 0 0
0 0 0 0 0 0 0 0 0 0 0 0 0 0 0 0 0 0 0 0 0 0 0 0 0 0 0 0 0 0 0 0 0 0 0 0 0 0 0 0 0 0 0
0 0 0 0 0 0 0 0 0 0 0 0 0 0 0 0 0 0 0 0 0 0 0 0 0 0 0 0 0 0 0 0 0 0 0 0 0 0 0 0 0 0 0
0 0 0 0 0 0 0 0 0 0 0 0 0 0 0 0 0 0 0 0 0 0 0 0 0 0 0 0 0 0 0 0 0 0 -0 -0 0 0 0 0 0 0 0
0 0 0 0 0 0 0 0 0 0 0 0 0 0 0 0 0 0 0 0 0 0 0 0 0 0 0 0 0 0 0 0 0 0 -0 -0 0 0 0 0 0 0 0
0 0 0 0 0 0 0 0 0 0 0 0 0 0 0 0 0 0 0 0 0 0 0 0 0 0 0 0 0 0 0 0 0 0 0 0 0 0 0 0 0 0 0
1 0 0 0 0 0 0 0 0 0 0 0 0 0 0 0 0 0 0 0 0 0 0 0 0 0 0 0 0 0 0 0 0 0 0 0 0 0 0 0 0 0 0
1 1 0 0 0 0 0 0 0 0 0 0 0 0 0 0 0 0 0 0 0 0 0 0 0 0 0 0 0 0 0 0 0 0 0 0 0 0 0 0 0 0 0
1 1 0 0 0 0 0 0 0 0 0 0 0 0 0 0 0 0 0 0 0 0 0 0 0 0 0 0 0 0 0 0 0 0 0 0 0 0 0 0 0 0 0
1 1 0 0 0 0 0 0 0 0 0 0 0 0 0 0 0 0 0 0 0 0 0 0 0 0 0 0 0 0 0 0 0 0 0 0 0 0 0 0 0 0 0
0 0 0 0 0 0 0 0 0 0 0 0 0 0 0 0 0 0 0 0 0 0 0 0 0 0 0 0 0 0 0 0 0 0 0 0 0 0 0 0 0 0 0
0 0 0 0 0 0 0 0 0 0 0 0 0 0 0 0 0 0 0 0 0 0 0 0 0 0 0 0 0 0 0 0 0 0 0 0 0 0 0 0 0 0 0
0 0 0 0 0 0 0 0 0 0 0 0 0 0 0 0 0 0 0 0 0 0 0 0 0 0 0 0 0 0 0 0 0 0 0 0 0 0 0 0 0 0 0
0 0 0 0 0 0 0 0 0 0 0 0 0 0 0 0 0 0 0 0 0 0 0 0 0 0 0 0 0 0 0 0 0 0 0 0 0 0 0 0 0 0 0
0 0 0 0 0 0 0 0 0 0 0 0 0 0 0 0 0 0 0 0 0 0 0 0 0 0 0 0 0 0 0 0 0 0 0 0 0 0 0 0 0 0 0
0 0 0 0 0 0 0 0 0 0 0 0 0 0 0 0 0 0 0 0 0 0 0 0 0 0 0 0 0 0 0 0 0 0 0 0 0 0 0 0 0 0 0
0 0 0 0 0 0 0 0 0 0 0 0 0 0 0 0 0 0 0 0 0 0 0 0 0 0 0 0 0 0 0 0 0 0 0 0 0 0 0 0 0 0 0
0 0 0 0 0 0 0 0 0 0 0 0 0 0 0 0 0 0 0 0 0 0 0 0 0 0 0 0 0 0 0 0 0 0 0 0 0 0 0 0 0 0 0
0 0 0 0 0 0 0 0 0 0 0 0 0 0 0 0 0 0 0 0 0 0 0 0 0 0 0 0 0 0 0 0 0 0 0 0 0 0 0 0 0 0 0
0 0 0 0 0 0 0 0 0 0 0 0 0 0 0 0 0 0 0 0 0 0 0 0 0 0 0 0 0 0 0 0 0 0 0 0 0 0 0 0 0 0 0
0 0 0 0 0 0 0 0 0 0 0 0 0 0 0 0 0 0 0 0 0 0 0 0 0 0 0 0 0 0 0 0 0 0 0 0 0 0 0 0 0 0 0
0 0 0 0 0 0 0 0 0 0 0 0 0 0 0 0 0 0 0 0 0 0 0 0 0 0 0 0 0 0 0 0 0 0 0 0 0 0 0 0 0 0 0
0 0 0 0 0 0 0 0 0 0 0 0 0 0 0 0 0 0 0 0 0 0 0 0 0 0 0 0 0 0 0 0 0 0 0 0 0 0 0 0 0 0 0
0 0 0 0 0 0 0 0 0 0 0 0 0 0 0 0 0 0 0 0 0 0 0 0 0 0 0 0 0 0 0 0 0 0 0 0 0 0 0 0 0 0 0
0 0 0 0 0 0 0 0 0 0 0 0 0 0 0 0 0 0 0 0 0 0 0 0 0 0 0 0 0 0 0 0 0 0 0 0 0 0 0 0 0 0 0
0 0 0 0 0 0 0 0 0 0 0 0 0 0 0 0 0 0 0 0 0 0 0 0 0 0 0 0 0 0 0 0 0 0 0 0 0 0 0 0 0 0 0
Wind_Speed
6 8 15 16 17 17 18 18 17 17 17 16 15 15 14 13 13 12 11 11 10 9 9 9 10 10 10 10 10 10 10 10 10 11 11 11 12 12 13 13 13 11 15
9 10 16 16 17 17 17 17 17 16 16 15 14 14 13 12 12 11 11 10 9 9 9 9 10 10 10 10 10 10 10 9 10 10 11 11 12 12 12 13 13 10 14
12 10 14 16 16 17 16 16 16 15 15 14 14 13 12 11 11 10 10 9 9 9 9 9 9 9 9 9 9 9 9 9 9 10 10 7 9 12 12 12 13 14 14
11 9 11 17 16 16 16 16 15 15 14 13 13 12 11 11 10 9 9 9 8 8 9 9 9 9 9 8 8 8 8 8 9 10 6 5 6 11 12 13 13 13 13
9 8 11 18 16 16 15 15 14 14 13 13 12 11 10 10 9 8 8 8 8 8 7 8 8 8 8 7 7 6 6 8 9 8 5 4 5 10 12 13 13 13 13
8 7 10 17 16 15 14 14 14 13 13 12 11 10 10 9 8 7 7 7 7 7 7 7 7 7 6 6 6 5 5 6 7 5 5 5 5 9 12 13 13 13 12
7 6 8 16 15 15 14 14 13 13 12 11 10 9 9 8 7 7 6 6 5 5 6 6 5 5 5 5 4 5 5 6 5 4 4 5 5 9 12 12 12 12 12
8 6 7 14 15 14 14 13 13 12 11 11 10 9 8 7 6 6 5 5 5 5 4 4 4 4 4 4 4 4 4 4 5 4 5 4 6 9 11 12 12 12 12
7 6 5 6 9 13 13 12 12 11 11 10 9 8 7 6 5 5 4 4 4 4 3 3 3 3 2 2 2 3 3 4 4 3 4 4 7 10 12 12 12 12 12
5 5 5 5 5 5 7 11 11 11 10 9 8 7 6 5 4 4 3 3 4 4 3 3 3 2 2 1 1 1 2 3 2 2 2 4 9 11 12 12 12 12 12
7 5 5 5 5 5 4 7 8 9 8 7 6 6 4 1 1 0 2 3 3 3 3 4 4 3 2 1 1 1 1 1 1 1 2 6 9 11 12 13 13 13 12
9 7 5 5 5 5 5 4 3 3 3 3 2 2 2 2 1 1 2 0 0 0 0 1 1 1 1 1 2 2 1 1 1 1 2 7 9 11 12 13 13 13 13
7 7 6 6 5 5 3 3 2 2 2 2 3 3 3 2 2 2 2 2 2 2 2 2 2 1 1 0 1 0 0 0 1 1 2 6 8 11 13 13 14 14 14
8 7 6 5 5 4 3 3 3 2 2 2 2 3 3 2 2 2 2 2 2 1 1 1 1 1 1 1 1 0 0 0 1 1 2 5 6 10 12 13 14 14 14
6 6 6 6 5 4 4 3 3 3 3 3 2 2 3 3 2 2 2 2 2 2 1 1 1 1 2 2 2 1 1 1 2 2 2 5 6 8 11 12 13 14 14
6 6 6 6 5 5 4 3 3 3 3 3 2 3 4 3 3 3 2 2 2 2 1 1 2 2 1 1 2 2 2 1 2 2 2 4 7 7 9 11 11 12 13
7 6 6 6 5 6 5 5 3 3 3 3 3 3 4 4 4 3 3 2 2 2 2 2 3 2 2 2 2 3 2 2 2 3 3 2 3 6 8 9 10 10 12
6 6 5 6 6 6 5 5 3 3 3 3 3 3 4 4 4 4 3 2 2 2 2 2 2 2 2 2 2 2 2 2 3 3 3 3 2 3 5 8 9 10 12
6 7 6 6 6 6 6 4 4 3 3 3 3 3 3 4 4 4 3 2 2 3 2 2 3 2 2 2 2 2 2 3 3 3 3 3 3 3 3 5 8 9 12
6 6 7 6 6 6 5 4 4 3 2 2 2 3 4 3 4 4 3 3 3 3 2 2 3 3 2 2 2 2 3 3 3 3 3 3 2 3 3 3 3 5 9
7 7 7 7 6 6 4 4 3 2 2 1 1 3 3 3 4 4 3 3 3 3 2 2 2 3 3 2 2 3 3 3 3 3 4 4 4 3 2 1 1 2 2
8 7 7 7 7 6 4 3 3 3 2 2 1 2 2 3 4 3 3 3 2 2 2 2 2 2 2 3 2 2 3 4 4 4 4 5 6 4 4 3 2 2 2
9 9 8 7 7 6 5 4 4 3 3 2 1 1 1 2 3 3 4 3 3 2 2 1 2 2 1 2 2 2 2 0 3 3 3 4 5 5 5 4 4 3 2
9 8 8 8 7 6 6 6 6 4 3 3 2 2 1 1 2 3 3 4 3 2 2 1 2 1 2 1 1 2 1 1 0 2 3 3 4 4 5 4 4 4 4
9 8 7 7 6 6 6 7 6 4 3 2 2 2 1 0 0 2 3 3 3 2 2 2 2 2 1 1 1 1 1 2 1 0 2 4 4 3 4 4 3 4 4
7 7 7 7 6 6 6 6 6 7 5 4 3 2 1 0 0 1 3 3 3 3 3 3 2 3 2 2 1 1 1 1 1 1 1 2 3 3 4 3 3 3 3
Wind_Direction
151 154 151 145 138 132 128 125 123 122 122 121 121 121 121 122 122 122 122 121 118 114 109 104 101 101 101 100 100 101 104 108 112 116 119 119 119 120 121 118 115 114 117
142 151 152 147 141 136 132 130 128 127 126 126 125 124 124 123 123 122 121 121 119 116 111 107 104 104 105 104 103 104 107 110 115 118 119 120 122 122 121 121 119 122 123
139 148 151 148 143 139 136 134 132 131 131 129 128 128 127 126 125 124 123 122 119 116 113 109 108 106 104 104 104 105 107 110 113 113 109 107 121 125 127 128 125 126 125
140 143 150 150 146 143 140 138 136 135 134 133 132 132 131 130 129 127 125 122 119 117 115 114 112 109 106 105 105 106 110 115 116 112 101 112 124 130 132 131 128 128 126
136 141 155 152 150 147 144 142 140 138 138 137 137 137 136 135 135 132 129 126 123 119 119 117 113 111 109 105 101 100 107 120 122 113 108 109 116 134 134 134 131 130 128
134 142 158 155 152 150 148 147 144 143 143 142 141 142 143 143 143 140 136 131 126 124 122 122 119 115 111 105 98 89 93 117 114 115 119 124 132 141 139 139 138 135 133
135 141 156 156 154 152 150 149 148 148 148 148 150 150 152 153 151 149 147 142 138 134 132 130 125 121 115 105 90 75 78 107 112 125 133 139 149 150 146 144 142 140 139
135 135 148 157 155 154 153 153 153 153 152 154 156 157 158 161 162 160 157 156 154 150 143 139 136 130 117 102 84 66 66 91 114 135 145 154 165 159 154 150 148 147 146
133 131 136 149 154 156 156 157 157 156 157 159 160 162 163 165 166 167 167 173 173 169 171 172 167 157 139 115 88 68 68 87 107 138 162 167 178 169 164 160 157 153 151
133 129 128 128 132 142 154 160 160 159 161 161 163 168 174 178 183 188 185 202 205 204 206 211 211 208 204 187 133 82 89 82 106 152 168 183 188 181 175 171 168 164 160
154 143 134 131 131 134 145 162 160 160 163 161 164 170 162 104 74 223 230 222 227 231 234 238 243 238 230 281 319 357 91 117 143 179 187 196 195 193 185 180 178 174 171
168 163 148 147 147 144 156 140 130 130 135 127 119 122 104 90 64 60 0 244 161 112 302 284 265 316 9 18 3 17 69 169 189 218 220 215 205 201 195 189 186 182 180
165 166 162 161 158 153 141 134 123 110 110 109 109 106 99 86 61 49 43 29 32 42 34 21 27 31 30 40 36 39 10 200 215 230 240 237 218 208 202 196 193 190 188
161 171 164 168 164 161 148 141 133 127 123 117 115 116 111 101 81 70 64 49 45 44 47 39 39 15 4 11 10 340 325 241 232 235 250 250 228 216 210 201 199 197 195
163 169 165 168 166 162 148 144 139 136 135 129 116 112 118 113 104 88 69 56 48 44 53 49 39 29 19 11 360 346 303 290 276 256 269 268 246 229 219 209 204 202 203
171 172 163 164 168 160 151 143 142 143 139 123 120 120 113 113 114 105 85 66 51 42 52 65 61 57 39 25 4 347 319 299 286 278 266 275 263 245 225 218 213 208 209
173 167 164 165 161 155 147 149 145 140 132 129 126 119 118 118 118 112 97 77 54 50 65 67 55 50 42 26 4 347 335 310 293 283 273 256 265 255 239 226 220 217 218
161 157 166 170 157 151 142 137 132 128 129 128 123 121 122 118 119 110 99 84 66 62 65 75 53 54 36 21 357 340 339 321 311 295 281 267 256 256 251 240 233 227 227
167 157 159 155 153 144 131 123 116 116 120 119 119 122 124 120 119 111 104 94 83 69 55 64 54 54 34 3 336 345 349 341 331 326 313 292 269 253 248 252 250 240 235
161 155 152 147 143 128 116 106 94 90 94 107 123 132 132 129 123 113 106 98 90 79 59 55 64 49 37 347 341 358 349 352 354 3 350 339 317 282 254 251 253 249 243
155 154 156 151 147 138 130 128 125 129 125 119 142 144 142 137 128 123 116 107 93 89 79 71 76 55 29 360 18 359 350 1 18 27 18 21 13 353 334 285 261 250 254
164 165 162 160 156 157 145 136 131 128 129 125 111 128 148 149 148 146 140 132 118 105 81 68 75 79 32 24 57 55 7 354 356 10 15 29 21 18 18 7 345 307 277
170 174 171 168 162 158 139 115 97 83 73 81 104 139 168 165 167 161 157 146 140 129 122 105 95 104 80 26 39 105 107 327 319 334 359 13 10 20 14 6 13 359 331
180 175 168 166 161 157 148 146 146 151 162 183 171 170 163 155 174 175 170 164 158 149 151 157 125 111 116 71 24 36 78 153 107 331 331 349 356 13 6 4 4 359 352
176 171 168 160 160 159 160 159 149 146 153 139 127 142 150 93 213 189 175 168 167 167 172 161 139 134 132 146 136 89 70 55 69 125 317 331 338 337 342 343 351 356 355
169 166 163 162 167 165 164 162 161 160 157 151 157 169 183 206 257 200 169 171 176 180 185 181 171 168 173 168 169 168 162 158 172 164 248 301 313 310 320 325 345 350 352